Broomfield, CO

1:59 PM MDT on June 23, 2017 (GMT -0600)
Jeffco

Weather History for KBJC - August, 2013

Change the Weather History Date:

Sunday, August 4, 2013

  Actual Average Record
Temperature  
Mean Temperature 72 °F -  
Max Temperature 86 °F 84 °F 93 °F (2003)
Min Temperature 59 °F 60 °F 44 °F (1986)
Cooling Degree Days 8    
Growing Degree Days 22 (Base 50)    
Moisture  
Dew Point 48 °F    
Average Humidity 53    
Maximum Humidity 72    
Minimum Humidity 19    
Precipitation  
Precipitation 0.00 in - - ()
Sea Level Pressure  
Sea Level Pressure 30.19 in    
Wind  
Wind Speed 8 mph (WSW)    
Max Wind Speed 17 mph    
Max Gust Speed 18 mph    
Visibility 10 miles    
Events      
Averages and records for this station are not official NWS values.
T = Trace of Precipitation, MM = Missing Value Source: NWS Daily Summary

Daily Weather History Graph

Daily Weather History Graph

Search for Another Location

Airport or City:

Trip Planner

Search our weather history database for the weather conditions in past years. The results will help you decide how hot, cold, wet, or windy it might be!

Date:

Astronomy

Aug. 04, 2013 Rise Set
Actual Time 6:02 AM MDT 8:10 PM MDT
Civil Twilight 5:32 AM MDT 8:40 PM MDT
Nautical Twilight 4:55 AM MDT 9:16 PM MDT
Astronomical Twilight 4:15 AM MDT 9:56 PM MDT
Moon 4:05 AM MDT (8/4) 6:35 PM MDT (8/4)
Length of Visible Light 15h 07m
Length of Day
14h 08m
Waning Crescent, 4% of the Moon is Illuminated
Aug 4
Waning Crescent
Aug 6
New
Aug 14
First Quarter
Aug 20
Full
Aug 28
Last Quarter

Hourly Weather History & Observations

Time (MDT) Temp. Dew Point Humidity Pressure Visibility Wind Dir Wind Speed Gust Speed Precip Events Conditions
12:16 AM 62.6 °F 50.0 °F 63% 30.28 in 10.0 mi SSW 10.4 mph - N/A   Clear
12:36 AM 62.6 °F 50.0 °F 63% 30.26 in 10.0 mi South 9.2 mph - N/A   Clear
12:56 AM 62.6 °F 50.0 °F 63% 30.23 in 10.0 mi SSW 10.4 mph - N/A   Clear
1:16 AM 62.6 °F 50.0 °F 63% 30.22 in 10.0 mi South 9.2 mph - N/A   Clear
1:36 AM 62.6 °F 50.0 °F 63% 30.21 in 10.0 mi SSW 6.9 mph - N/A   Clear
1:56 AM 62.6 °F 50.0 °F 63% 30.19 in 10.0 mi South 8.1 mph - N/A   Clear
2:15 AM 60.8 °F 50.0 °F 68% 30.19 in 10.0 mi SSE 6.9 mph - N/A   Clear
2:36 AM 60.8 °F 50.0 °F 68% 30.18 in 10.0 mi SSE 4.6 mph - N/A   Clear
2:55 AM 60.8 °F 50.0 °F 68% 30.18 in 10.0 mi SSW 5.8 mph - N/A   Clear
3:15 AM 62.6 °F 50.0 °F 63% 30.17 in 10.0 mi WSW 4.6 mph - N/A   Clear
3:36 AM 60.8 °F 50.0 °F 68% 30.16 in 10.0 mi SW 4.6 mph - N/A   Clear
3:56 AM 60.8 °F 48.2 °F 63% 30.16 in 10.0 mi Calm Calm - N/A   Clear
4:16 AM 64.4 °F 46.4 °F 52% 30.16 in 10.0 mi Calm Calm - N/A   Clear
4:35 AM 60.8 °F 50.0 °F 68% 30.17 in 10.0 mi North 6.9 mph - N/A   Clear
4:55 AM 59.0 °F 50.0 °F 72% 30.17 in 10.0 mi NW 10.4 mph - N/A   Clear
5:16 AM 60.8 °F 50.0 °F 68% 30.17 in 10.0 mi WNW 10.4 mph - N/A   Clear
5:36 AM 59.0 °F 50.0 °F 72% 30.17 in 10.0 mi WNW 8.1 mph - N/A   Clear
5:47 AM 59.0 °F 50.0 °F 72% 30.17 in 30.0 mi West 9.2 mph - N/A   Scattered Clouds
5:56 AM 59.0 °F 50.0 °F 72% 30.18 in 10.0 mi NW 4.6 mph - N/A   Clear
6:45 AM 62.6 °F 50.0 °F 63% 30.18 in 50.0 mi NNW 9.2 mph - N/A   Scattered Clouds
7:47 AM 62.6 °F 50.0 °F 63% 30.21 in 50.0 mi NNW 5.8 mph - N/A   Scattered Clouds
8:50 AM 64.4 °F 51.8 °F 64% 30.22 in 50.0 mi WNW 4.6 mph - N/A   Scattered Clouds
9:50 AM 68.0 °F 50.0 °F 52% 30.22 in 50.0 mi NNW 3.5 mph - N/A   Scattered Clouds
10:46 AM 73.4 °F 53.6 °F 50% 30.22 in 50.0 mi North 4.6 mph - N/A   Scattered Clouds
11:47 AM 77.0 °F 50.0 °F 39% 30.22 in 50.0 mi NNE 4.6 mph - N/A   Scattered Clouds
12:47 PM 80.6 °F 51.8 °F 37% 30.20 in 50.0 mi Calm Calm - N/A   Scattered Clouds
1:50 PM 82.4 °F 48.2 °F 30% 30.19 in 50.0 mi East 4.6 mph - N/A   Scattered Clouds
2:47 PM 84.2 °F 50.0 °F 30% 30.19 in 50.0 mi NNW 6.9 mph - N/A   Scattered Clouds
3:50 PM 86.0 °F 44.6 °F 23% 30.19 in 50.0 mi West 6.9 mph - N/A   Mostly Cloudy
4:48 PM 84.2 °F 37.4 °F 19% 30.19 in 50.0 mi NW 13.8 mph 18.4 mph N/A   Mostly Cloudy
5:46 PM 82.4 °F 39.2 °F 21% 30.19 in 40.0 mi West 5.8 mph - N/A   Mostly Cloudy
6:49 PM 80.6 °F 39.2 °F 23% 30.18 in 40.0 mi SW 8.1 mph - N/A   Mostly Cloudy
7:49 PM 77.0 °F 44.6 °F 32% 30.20 in 40.0 mi SE 11.5 mph - N/A   Mostly Cloudy
8:46 PM 75.2 °F 46.4 °F 36% 30.22 in 30.0 mi South 17.3 mph - N/A   Mostly Cloudy
9:48 PM 71.6 °F 48.2 °F 43% 30.22 in 30.0 mi South 16.1 mph - N/A   Mostly Cloudy
11:16 PM 71.6 °F 46.4 °F 41% 30.19 in 10.0 mi South 9.2 mph - N/A   Clear
11:36 PM 71.6 °F 44.6 °F 38% 30.18 in 10.0 mi South 8.1 mph - N/A   Clear
11:56 PM 69.8 °F 44.6 °F 40% 30.18 in 10.0 mi SSE 8.1 mph - N/A   Clear